Location: Stanford
(52.2833°N, 2.4333°W)
Time: 02:12:42
(UTC+00:00)

Iridium 4 Rocket - Pass Details

Date: 22 January 2021
Orbit: 583 x 906 km, 86.9° (Epoch: 28 February)

Event Time Altitude Azimuth Distance (km) Brightness Sun altitude
Rises 18:50:19 0° 357° (N) 3,505 6.9 -19.7°
Reaches altitude 10° 18:52:51 10° 359° (N) 2,533 6.1 -20.0°
Maximum altitude 18:58:36 75° 85° (E) 862 3.5 -20.9°
Drops below altitude 10° 19:03:52 10° 171° (S) 2,328 5.9 -21.7°
Sets 19:06:06 0° 173° (S) 3,202 6.7 -22.1°
